Location: Caltech
(34.1382°N, 118.1253°W)
Time: 15:20:47
(UTC-07:00)

AO-Echo - Visible Passes

Search period start: 25 April 2017 00:00
Search period end: 05 May 2017 00:00
Orbit: 692 x 812 km, 98.4° (Epoch: 24 April)

Date Brightness Start Highest point End Pass type
(mag) Time Alt. Az. Time Alt. Az. Time Alt. Az.
25 Apr ? 01:53:39 10° NNE 01:54:34 15° NNE 01:54:34 15° NNE visible
25 Apr ? 03:34:05 10° NNW 03:34:30 11° NW 03:34:30 11° NW visible
26 Apr ? 02:52:04 10° N 02:53:38 19° NNW 02:53:38 19° NNW visible
27 Apr ? 02:11:16 10° NNE 02:12:45 20° NNE 02:12:45 20° NNE visible
28 Apr ? 01:31:20 10° NE 01:31:52 13° NE 01:31:52 13° NE visible
28 Apr ? 03:10:15 10° NNW 03:11:48 17° NNW 03:11:48 17° NNW visible
29 Apr ? 02:29:02 10° N 02:30:56 24° N 02:30:56 24° N visible
30 Apr ? 01:48:41 10° NNE 01:50:03 18° NNE 01:50:03 18° NNE visible
30 Apr ? 03:28:43 10° NNW 03:30:00 14° NW 03:30:00 14° NW visible
01 May ? 02:46:58 10° N 02:49:07 24° NNW 02:49:07 24° NNW visible
02 May ? 02:06:16 10° NNE 02:08:14 25° NNE 02:08:14 25° NNE visible
02 May ? 03:48:06 10° NW 03:48:10 10° NW 03:48:10 10° NW visible
03 May ? 01:26:26 10° NE 01:27:21 14° NE 01:27:21 14° NE visible
03 May ? 03:05:04 10° NNW 03:07:17 22° NW 03:07:17 22° NW visible
04 May ? 02:24:00 10° N 02:26:25 30° N 02:26:25 30° N visible
